Tomahawk, WI

6:57 AM CDT on September 27, 2016 (GMT -0500)
Tomahawk

Weather History for KTKV - February, 2013

Change the Weather History Date:

Tuesday, February 26, 2013

  Actual Average (KRHI) Record (KRHI)
Temperature  
Mean Temperature 28 °F 20 °F  
Max Temperature 32 °F 30 °F 56 °F (1958)
Min Temperature 24 °F 10 °F -34 °F (1928)
Degree Days  
Heating Degree Days 37 45  
Month to date heating degree days 1271  
Since 1 July heating degree days 6532  
Cooling Degree Days 0 0  
Month to date cooling degree days 0  
Year to date cooling degree days 0  
Moisture  
Dew Point 23 °F    
Average Humidity 77    
Maximum Humidity 86    
Minimum Humidity 69    
Precipitation  
Precipitation 0.00 in 0.04 in 0.71 in (1936)
Month to date precipitation 0.85  
Year to date precipitation 1.96  
Snow  
Snow 0.00 in - 6.00 in (2007)
Month to date snowfall  
Since 1 July snowfall  
Snow Depth -    
Sea Level Pressure  
Sea Level Pressure 29.92 in    
Wind  
Wind Speed 5 mph (NE)    
Max Wind Speed 15 mph    
Max Gust Speed 25 mph    
Visibility 9 miles    
Events      
T = Trace of Precipitation, MM = Missing Value Source: NWS Daily Summary

Daily Weather History Graph

Daily Weather History Graph

Search for Another Location

Airport or City:

Trip Planner

Search our weather history database for the weather conditions in past years. The results will help you decide how hot, cold, wet, or windy it might be!

Date:

Astronomy

Feb. 26, 2013 Rise Set
Actual Time 6:42 AM CST 5:42 PM CST
Civil Twilight 6:12 AM CST 6:12 PM CST
Nautical Twilight 5:38 AM CST 6:46 PM CST
Astronomical Twilight 5:04 AM CST 7:20 PM CST
Moon 7:05 PM CST (2/26) 6:40 AM CST (2/26)
Length of Visible Light 11h 59m
Length of Day
11h 00m
Full, 99% of the Moon is Illuminated
Feb 26
Full
Mar 4
Last Quarter
Mar 11
New
Mar 19
First Quarter
Mar 27
Full

Hourly Weather History & Observations

Time (CST) Temp. Windchill Dew Point Humidity Pressure Visibility Wind Dir Wind Speed Gust Speed Precip Events Conditions
12:15 AM 28.4 °F - 24.8 °F 86% 30.04 in 5.0 mi Calm Calm - N/A   Overcast
12:35 AM 28.4 °F - 24.8 °F 86% 30.04 in 5.0 mi Calm Calm - N/A   Overcast
12:55 AM 28.4 °F - 24.8 °F 86% 30.04 in 7.0 mi Calm Calm - N/A   Overcast
1:15 AM 28.4 °F - 24.8 °F 86% 30.04 in 5.0 mi Calm Calm - N/A   Overcast
1:35 AM 28.4 °F - 24.8 °F 86% 30.04 in 7.0 mi Calm Calm - N/A   Overcast
1:55 AM 28.4 °F - 24.8 °F 86% 30.03 in 5.0 mi Calm Calm - N/A   Overcast
2:15 AM 28.4 °F - 24.8 °F 86% 30.03 in 5.0 mi Calm Calm - N/A   Overcast
2:35 AM 28.4 °F - 24.8 °F 86% 30.03 in 5.0 mi Calm Calm - N/A   Overcast
2:55 AM 28.4 °F - 24.8 °F 86% 30.02 in 5.0 mi Calm Calm - N/A   Overcast
3:15 AM 28.4 °F - 24.8 °F 86% 30.02 in 7.0 mi Calm Calm - N/A   Overcast
3:35 AM 28.4 °F - 24.8 °F 86% 30.01 in 7.0 mi Calm Calm - N/A   Overcast
3:55 AM 28.4 °F - 24.8 °F 86% 30.00 in 7.0 mi Calm Calm - N/A   Overcast
4:15 AM 28.4 °F - 24.8 °F 86% 30.00 in 7.0 mi Calm Calm - N/A   Overcast
4:35 AM 28.4 °F - 24.8 °F 86% 30.00 in 7.0 mi Calm Calm - N/A   Overcast
4:55 AM 28.4 °F 23.3 °F 24.8 °F 86% 29.98 in 7.0 mi East 4.6 mph - N/A   Overcast
5:15 AM 28.4 °F 24.6 °F 23.0 °F 80% 29.98 in 10.0 mi ENE 3.5 mph - N/A   Overcast
5:35 AM 28.4 °F 24.6 °F 23.0 °F 80% 29.98 in 10.0 mi NE 3.5 mph - N/A   Overcast
5:55 AM 28.4 °F - 23.0 °F 80% 29.98 in 10.0 mi Calm Calm - N/A   Overcast
6:15 AM 28.4 °F 23.3 °F 23.0 °F 80% 29.99 in 10.0 mi ENE 4.6 mph - N/A   Overcast
6:35 AM 26.6 °F 21.2 °F 21.2 °F 80% 29.99 in 10.0 mi NE 4.6 mph - N/A   Mostly Cloudy
6:55 AM 24.8 °F 17.9 °F 21.2 °F 86% 29.98 in 10.0 mi NE 5.8 mph - N/A   Clear
7:15 AM 24.8 °F 19.1 °F 21.2 °F 86% 29.98 in 10.0 mi NNE 4.6 mph - N/A   Clear
7:35 AM 26.6 °F 20.0 °F 21.2 °F 80% 29.97 in 10.0 mi NE 5.8 mph - N/A   Clear
7:55 AM 26.6 °F 20.0 °F 21.2 °F 80% 29.98 in 10.0 mi ENE 5.8 mph - N/A   Clear
8:15 AM 26.6 °F 21.2 °F 21.2 °F 80% 29.98 in 10.0 mi East 4.6 mph - N/A   Scattered Clouds
8:35 AM 26.6 °F 20.0 °F 21.2 °F 80% 29.98 in 10.0 mi East 5.8 mph - N/A   Scattered Clouds
8:55 AM 28.4 °F 20.4 °F 21.2 °F 74% 29.99 in 10.0 mi ENE 8.1 mph - N/A   Scattered Clouds
9:15 AM 28.4 °F 21.2 °F 23.0 °F 80% 30.00 in 7.0 mi ENE 6.9 mph - N/A   Mostly Cloudy
9:35 AM 28.4 °F 22.2 °F 23.0 °F 80% 29.99 in 10.0 mi NE 5.8 mph - N/A   Overcast
9:55 AM 30.2 °F 23.4 °F 23.0 °F 75% 29.98 in 10.0 mi ENE 6.9 mph - N/A   Mostly Cloudy
10:15 AM 30.2 °F 21.9 °F 23.0 °F 75% 29.97 in 10.0 mi ENE 9.2 mph - N/A   Scattered Clouds
10:35 AM 30.2 °F 21.3 °F 23.0 °F 75% 29.97 in 10.0 mi ENE 10.4 mph - N/A   Overcast
10:55 AM 30.2 °F 22.6 °F 23.0 °F 75% 29.97 in 10.0 mi ENE 8.1 mph - N/A   Overcast
11:15 AM 30.2 °F 21.9 °F 24.8 °F 80% 29.96 in 10.0 mi ENE 9.2 mph - N/A   Overcast
11:35 AM 30.2 °F 21.9 °F 24.8 °F 80% 29.95 in 10.0 mi NE 9.2 mph - N/A   Overcast
11:55 AM 30.2 °F 21.9 °F 24.8 °F 80% 29.93 in 10.0 mi ENE 9.2 mph - N/A   Overcast
12:15 PM 32.0 °F 22.5 °F 24.8 °F 75% 29.93 in 10.0 mi NE 12.7 mph 17.3 mph N/A   Overcast
12:35 PM 32.0 °F 24.2 °F 24.8 °F 75% 29.92 in 10.0 mi ENE 9.2 mph - N/A   Overcast
12:55 PM 32.0 °F 23.0 °F 24.8 °F 75% 29.90 in 10.0 mi ENE 11.5 mph - N/A   Overcast
1:15 PM 32.0 °F 22.1 °F 24.8 °F 75% 29.90 in 10.0 mi ENE 13.8 mph 18.4 mph N/A   Overcast
1:35 PM 32.0 °F 23.6 °F 24.8 °F 75% 29.89 in 10.0 mi NE 10.4 mph 16.1 mph N/A   Overcast
1:55 PM 32.0 °F 23.0 °F 24.8 °F 75% 29.88 in 10.0 mi NE 11.5 mph 18.4 mph N/A   Overcast
2:15 PM 32.0 °F 23.0 °F 24.8 °F 75% 29.87 in 10.0 mi NE 11.5 mph 17.3 mph N/A   Overcast
2:35 PM 32.0 °F 22.5 °F 23.0 °F 69% 29.86 in 10.0 mi NE 12.7 mph 23.0 mph N/A   Overcast
2:55 PM 32.0 °F 22.5 °F 23.0 °F 69% 29.86 in 10.0 mi NNE 12.7 mph 19.6 mph N/A   Mostly Cloudy
3:15 PM 32.0 °F 24.8 °F 23.0 °F 69% 29.86 in 10.0 mi NE 8.1 mph 18.4 mph N/A   Overcast
3:35 PM 32.0 °F 23.0 °F 23.0 °F 69% 29.86 in 10.0 mi NNE 11.5 mph 17.3 mph N/A   Overcast
3:55 PM 32.0 °F 25.6 °F 23.0 °F 69% 29.86 in 10.0 mi NE 6.9 mph 19.6 mph N/A   Mostly Cloudy
4:15 PM 32.0 °F 25.6 °F 23.0 °F 69% 29.85 in 10.0 mi NE 6.9 mph - N/A   Scattered Clouds
4:35 PM 32.0 °F 25.6 °F 23.0 °F 69% 29.85 in 10.0 mi NE 6.9 mph - N/A   Clear
4:55 PM 32.0 °F 26.4 °F 23.0 °F 69% 29.85 in 10.0 mi ENE 5.8 mph - N/A   Clear
5:15 PM 32.0 °F 24.8 °F 23.0 °F 69% 29.85 in 10.0 mi ENE 8.1 mph - N/A   Clear
5:35 PM 32.0 °F 24.2 °F 23.0 °F 69% 29.85 in 10.0 mi ENE 9.2 mph - N/A   Clear
5:55 PM 30.2 °F 21.9 °F 23.0 °F 75% 29.85 in 10.0 mi NE 9.2 mph 18.4 mph N/A   Clear
6:15 PM 30.2 °F 22.6 °F 23.0 °F 75% 29.84 in 10.0 mi NE 8.1 mph - N/A   Clear
6:35 PM 30.2 °F 23.4 °F 21.2 °F 69% 29.85 in 10.0 mi ENE 6.9 mph - N/A   Clear
6:55 PM 30.2 °F 21.9 °F 21.2 °F 69% 29.85 in 10.0 mi NE 9.2 mph - N/A   Clear
7:15 PM 30.2 °F 22.6 °F 21.2 °F 69% 29.85 in 10.0 mi NE 8.1 mph 11.5 mph N/A   Clear
7:35 PM 30.2 °F 21.9 °F 21.2 °F 69% 29.84 in 10.0 mi NE 9.2 mph 16.1 mph N/A   Clear
7:55 PM 30.2 °F 19.3 °F 21.2 °F 69% 29.84 in 10.0 mi NE 15.0 mph 19.6 mph N/A   Scattered Clouds
8:15 PM 30.2 °F 19.8 °F 21.2 °F 69% 29.84 in 10.0 mi NE 13.8 mph 23.0 mph N/A   Overcast
8:35 PM 30.2 °F 21.9 °F 21.2 °F 69% 29.84 in 10.0 mi NE 9.2 mph 16.1 mph N/A   Overcast
8:55 PM 30.2 °F 20.8 °F 21.2 °F 69% 29.84 in 10.0 mi ENE 11.5 mph 18.4 mph N/A   Overcast
9:15 PM 30.2 °F 20.2 °F 21.2 °F 69% 29.84 in 10.0 mi NE 12.7 mph 18.4 mph N/A   Overcast
9:35 PM 28.4 °F 18.0 °F 21.2 °F 74% 29.83 in 10.0 mi NNE 12.7 mph 25.3 mph N/A   Overcast
9:55 PM 28.4 °F 18.0 °F 21.2 °F 74% 29.83 in 10.0 mi NNE 12.7 mph 20.7 mph N/A   Overcast
10:15 PM 28.4 °F 19.7 °F 21.2 °F 74% 29.83 in 10.0 mi NE 9.2 mph 20.7 mph N/A   Overcast
10:35 PM 28.4 °F 19.7 °F 21.2 °F 74% 29.83 in 10.0 mi NNE 9.2 mph 18.4 mph N/A   Overcast
10:55 PM 28.4 °F 18.5 °F 21.2 °F 74% 29.82 in 10.0 mi NE 11.5 mph 16.1 mph N/A   Overcast
11:15 PM 28.4 °F 20.4 °F 21.2 °F 74% 29.82 in 10.0 mi NE 8.1 mph 16.1 mph N/A   Overcast
11:35 PM 28.4 °F 19.1 °F 21.2 °F 74% 29.81 in 10.0 mi NE 10.4 mph 19.6 mph N/A   Overcast
11:55 PM 28.4 °F 22.2 °F 21.2 °F 74% 29.81 in 10.0 mi NNE 5.8 mph - N/A   Overcast